Regional Weather Roundup
Issued by NWS

Home | Current Version | Previous Version | Text Only | Print | Product List | Glossary On
Versions: 1 2 3 4 5 6 7 8 9 10 11 12 13 14 15 16 17 18 19 20 21 22 23 24 25 26 27 28 29 30 31 32 33 34 35 36 37 38 39 40 41 42 43 44 45 46 47 48 49 50
019
ASUS44 KLIX 211613
RWRLA
LOUISIANA WEATHER ROUNDUP
NATIONAL WEATHER SERVICE NEW ORLEANS LA
1000 AM CST SAT JAN 21 2017

NOTE: "FAIR" INDICATES FEW OR NO CLOUDS BELOW 12,000 FEET WITH NO
      SIGNIFICANT WEATHER AND/OR OBSTRUCTIONS TO VISIBILITY.
      SKY/WX - SKY CONDITION AND SIGNIFICANT WEATHER.
      TMP - AIR TEMPERATURE.    DP   - DEWPOINT TEMPERATURE.
      RH  - RELATIVE HUMIDITY.  PRES - PRESSURE.
      HX  - HEAT INDEX.         WCI  - WIND CHILL INDEX.

*  THESE STATIONS ARE NOT NWS OR FAA STATIONS AND ARE NOT UNDER
   NWS QUALITY CONTROL.

LAZ040-048-061>063-065-066-069-211700-
SOUTHEAST LOUISIANA

CITY           SKY/WX    TMP DP  RH WIND       PRES   REMARKS
N.O. AUDUBON   NOT AVBL
N.O. INTL ARPT PTSUNNY   66  61  84 E12       29.75R
N.O. LAKEFRONT MOSUNNY   66  61  84 E8        29.76R
N.O. DOWNTOWN*   N/A     65  60  84 E6        29.76R
RESERVE*       CLOUDY    67  60  79 E6        29.75S
SLIDELL        SUNNY     66  61  84 VRB3      29.76S
BATON ROUGE    MOSUNNY   66  59  78 E9        29.73S
BOOTHVILLE     CLOUDY    63  61  93 N8        29.77S
BELLE CHASSE   PTSUNNY   65  62  90 NE7       29.76R
BOGALUSA*      FAIR      66  60  80 SE6       29.77R
GALLIANO*      CLOUDY    68  62  82 CALM      29.74R
NEW ROADS*     CLOUDY    64  58  80 E12       29.72F
GONZALES*      CLOUDY    64  59  84 E7        29.73F
HAMMOND*       PTSUNNY   64  59  82 SE5       29.75R
HOUMA*         CLOUDY    64  63  94 NE7       29.75R
PORT FOURCHON* SUNNY     73  72  94 S12       29.75R FOG

$$

LAZ041-044-053-054-211700-
SOUTHWEST LOUISIANA

CITY           SKY/WX    TMP DP  RH WIND       PRES   REMARKS
LAKE CHARLES   CLOUDY    67  63  87 E8        29.68R
LAFAYETTE      PTSUNNY   68  61  78 VRB6      29.70F
PATTERSON      CLOUDY    67  65  93 E7        29.72F
SALT POINT     NOT AVBL
NEW IBERIA     PTSUNNY   67  62  84 E9        29.71S
CHENAULT AIRPK NOT AVBL

$$

LAZ027-028-211700-
CENTRAL LOUISIANA

CITY           SKY/WX    TMP DP  RH WIND       PRES   REMARKS
FORT POLK      CLOUDY    62  60  93 SE6       29.68S
ALEXANDRIA INT CLOUDY    60  59  96 SE12      29.67S
ALEXANDRIA     CLOUDY    63  60  90 SE9       29.68F

$$

LAZ001-002-211700-
NORTHWEST LOUISIANA

CITY           SKY/WX    TMP DP  RH WIND       PRES   REMARKS
SHREVEPORT     CLOUDY    62  58  86 S9        29.64R
BARKSDALE AFB  CLOUDY    60  60  99 S14       29.65R
DTN SHREVEPORT CLOUDY    61  56  83 S10       29.64R

$$

LAZ014-016-211700-
NORTHEAST LOUISIANA

CITY           SKY/WX    TMP DP  RH WIND       PRES   REMARKS
MONROE         CLOUDY    63  57  81 S6        29.68F
TALLULAH       SUNNY     63  58  83 SE6       29.73R

$$





USA.gov is the U.S. government's official web portal to all federal, state and local government web resources and services.